DW7888 Weather Reports


time (UTC)temp
C
wind
direction
speed
KPH
gust
KPH
rain 1hr
cm
rain 24hr
cm
rain mn
cm
humidity
%
barometer
mb
20260508105003 6 350 0.0 0.0 0.00 0.28 0.00 95 1015.9
20260508104518 6 350 0.0 0.0 0.00 0.28 0.00 96 1015.8
20260508104004 6 350 0.0 0.0 0.00 0.28 0.00 96 1015.8
20260508103505 6 350 0.0 0.0 0.00 0.28 0.00 96 1015.7
20260508103018 6 350 0.0 0.0 0.00 0.30 0.00 96 1015.7
20260508102503 6 350 0.0 0.0 0.00 0.30 0.00 96 1015.7
20260508102006 6 350 0.0 0.0 0.00 0.30 0.00 96 1015.7
20260508101530 6 350 0.0 0.0 0.00 0.30 0.00 96 1015.6
20260508101003 6 350 0.0 0.0 0.00 0.30 0.00 96 1015.7
20260508100508 6 350 0.0 0.0 0.00 0.30 0.00 96 1015.6
20260508100032 6 350 0.0 0.0 0.00 0.30 0.00 95 1015.5
20260508095506 6 350 0.0 0.0 0.00 0.30 0.00 95 1015.4
20260508095007 6 350 0.0 0.0 0.00 0.30 0.00 95 1015.4
20260508094526 6 350 0.0 0.0 0.00 0.30 0.00 95 1015.3
20260508094003 6 350 0.0 0.0 0.00 0.30 0.00 95 1015.3
20260508093507 6 350 0.0 0.0 0.00 0.30 0.00 96 1015.3
20260508093001 7 350 0.0 0.0 0.00 0.30 0.00 96 1015.3
20260508092509 7 350 0.0 1.6 0.00 0.30 0.00 95 1015.2
20260508092007 7 350 0.0 1.6 0.00 0.33 0.00 95 1015.2
20260508091504 7 350 0.0 1.6 0.00 0.43 0.00 95 1015.1
20260508091005 7 350 0.0 1.6 0.00 0.48 0.00 96 1015.1
20260508090507 7 350 0.0 4.8 0.00 0.48 0.00 96 1015.0
20260508090005 7 342 0.0 4.8 0.00 0.51 0.00 95 1014.9
20260508085510 7 355 0.0 3.2 0.00 0.53 0.00 95 1014.9
20260508085008 7 360 0.0 1.6 0.00 0.56 0.00 95 1014.9
20260508084504 7 56 0.0 1.6 0.00 0.58 0.00 95 1014.8
20260508084006 7 56 0.0 0.0 0.00 0.61 0.00 95 1014.6
20260508083506 7 56 0.0 1.6 0.00 0.61 0.00 95 1014.6
20260508083005 7 57 0.0 1.6 0.00 0.61 0.00 95 1014.5
20260508082505 7 46 0.0 0.0 0.00 0.61 0.00 95 1014.4
20260508082008 7 46 0.0 0.0 0.00 0.64 0.00 95 1014.4
20260508081505 7 46 0.0 0.0 0.00 0.64 0.00 95 1014.3
20260508081007 7 46 0.0 0.0 0.00 0.64 0.00 95 1014.2
20260508080507 8 46 0.0 0.0 0.00 0.64 0.00 95 1014.2
20260508080004 8 46 0.0 0.0 0.00 0.64 0.00 95 1014.2
20260508075506 8 46 0.0 0.0 0.00 0.64 0.00 95 1014.2
20260508075008 8 46 0.0 0.0 0.00 0.64 0.00 96 1014.2
20260508074513 8 46 0.0 0.0 0.00 0.64 0.00 96 1014.2
20260508074009 8 45 0.0 0.0 0.00 0.64 0.00 96 1014.1
20260508073511 8 45 0.0 0.0 0.00 0.64 0.00 95 1014.1
20260508073003 8 45 0.0 1.6 0.00 0.64 0.00 96 1014.1
20260508072508 8 45 0.0 1.6 0.00 0.64 0.00 96 1014.1
20260508072010 8 45 0.0 1.6 0.00 0.64 0.00 96 1014.0
20260508071508 8 60 0.0 0.0 0.00 0.64 0.00 96 1014.0
20260508071007 7 60 0.0 0.0 0.00 0.64 0.00 96 1014.0
20260508070507 7 60 0.0 0.0 0.00 0.64 0.00 95 1013.9
20260508070006 7 60 0.0 0.0 0.00 0.64 0.00 95 1013.8
20260508065509 7 60 0.0 0.0 0.00 0.64 0.00 95 1013.8
20260508065008 7 60 0.0 0.0 0.00 0.64 0.00 95 1013.8
20260508064534 7 60 0.0 0.0 0.00 0.64 0.00 95 1013.9
20260508064005 7 60 0.0 1.6 0.00 0.64 0.00 95 1013.8
20260508063507 7 60 0.0 1.6 0.00 0.64 0.00 95 1013.8
20260508063010 7 60 0.0 1.6 0.00 0.64 0.00 95 1013.7
20260508062511 7 60 0.0 0.0 0.00 0.64 0.00 95 1013.6
20260508062009 7 60 0.0 0.0 0.00 0.64 0.00 96 1013.7
20260508061510 7 60 0.0 0.0 0.00 0.64 0.00 95 1013.7
20260508061011 7 60 0.0 1.6 0.00 0.64 0.00 96 1013.6
20260508060508 7 60 0.0 1.6 0.00 0.64 0.00 95 1013.6
20260508060011 7 172 0.0 0.0 0.00 0.64 0.00 95 1013.6
20260508055506 7 172 0.0 0.0 0.00 0.64 0.00 95 1013.5
20260508055008 7 172 0.0 0.0 0.00 0.64 0.00 95 1013.5
20260508054519 7 172 0.0 0.0 0.00 0.64 0.00 95 1013.4
20260508054009 7 172 0.0 0.0 0.00 0.64 0.00 95 1013.4
20260508053509 7 172 0.0 0.0 0.00 0.64 0.00 95 1013.3
20260508053010 7 172 0.0 0.0 0.00 0.64 0.00 95 1013.4
20260508052507 7 172 0.0 0.0 0.00 0.64 0.00 95 1013.4
20260508052012 7 172 0.0 0.0 0.00 0.64 0.00 94 1013.4
20260508051523 7 172 0.0 0.0 0.00 0.64 0.00 94 1013.3
20260508051008 7 172 0.0 0.0 0.00 0.64 0.00 94 1013.3
20260508050509 7 172 0.0 0.0 0.00 0.64 0.00 95 1013.3
20260508050018 7 172 0.0 0.0 0.00 0.64 0.00 95 1013.3
20260508045507 7 172 0.0 0.0 0.00 0.64 0.00 94 1013.4
20260508045010 7 172 0.0 0.0 0.00 0.64 0.00 94 1013.3
20260508044518 7 172 0.0 0.0 0.00 0.64 0.00 95 1013.2
20260508044012 8 172 0.0 0.0 0.00 0.64 0.00 94 1013.1
20260508043509 8 172 0.0 0.0 0.00 0.64 0.00 94 1013.1
20260508043016 8 172 0.0 0.0 0.00 0.64 0.00 94 1013.1
20260508042507 8 171 0.0 0.0 0.00 0.64 0.00 94 1013.0
20260508042011 8 171 0.0 0.0 0.00 0.64 0.00 94 1013.1
20260508041533 8 171 0.0 0.0 0.00 0.64 0.00 94 1013.1
20260508041007 8 171 0.0 0.0 0.00 0.64 0.00 95 1013.1
20260508040511 8 171 0.0 0.0 0.00 0.64 0.00 94 1012.9
20260508040017 8 171 0.0 0.0 0.00 0.64 0.00 94 1012.9
20260508035515 8 171 0.0 0.0 0.00 0.64 0.64 94 1012.9
20260508035010 8 171 0.0 0.0 0.00 0.64 0.64 94 1012.9
20260508034525 9 171 0.0 0.0 0.00 0.64 0.64 95 1012.8
20260508034009 8 171 0.0 0.0 0.00 0.64 0.64 95 1012.9
20260508033507 8 171 0.0 0.0 0.00 0.64 0.64 94 1012.8
20260508033020 8 171 0.0 0.0 0.00 0.64 0.64 94 1012.8
20260508032510 8 171 0.0 0.0 0.00 0.64 0.64 95 1012.8
20260508032005 8 171 0.0 0.0 0.00 0.64 0.64 94 1012.8
20260508031522 8 171 0.0 0.0 0.00 0.64 0.64 94 1012.8
20260508031011 8 171 0.0 0.0 0.00 0.64 0.64 94 1012.8
20260508030512 9 171 0.0 0.0 0.00 0.64 0.64 94 1012.9
20260508030004 9 171 0.0 0.0 0.00 0.64 0.64 94 1012.7
20260508025504 9 171 0.0 0.0 0.00 0.64 0.64 94 1012.7
20260508025007 9 171 0.0 0.0 0.00 0.64 0.64 94 1012.6
20260508024505 9 171 0.0 0.0 0.00 0.64 0.64 94 1012.6
20260508024005 9 171 0.0 0.0 0.00 0.64 0.64 94 1012.6
20260508023506 9 171 0.0 0.0 0.00 0.64 0.64 94 1012.5
20260508023004 8 171 0.0 0.0 0.00 0.64 0.64 94 1012.5
20260508022504 8 171 0.0 0.0 0.00 0.64 0.64 94 1012.5
20260508022012 8 171 0.0 0.0 0.00 0.64 0.64 94 1012.4
20260508021504 8 171 0.0 0.0 0.00 0.64 0.64 94 1012.4
20260508021003 8 171 0.0 0.0 0.00 0.64 0.64 93 1012.5
20260508020511 9 171 0.0 0.0 0.00 0.64 0.64 93 1012.4
20260508020004 9 171 0.0 0.0 0.00 0.64 0.64 93 1012.3
20260508015503 9 171 0.0 0.0 0.00 0.64 0.64 93 1012.1
20260508015012 9 171 0.0 0.0 0.00 0.64 0.64 93 1011.9
20260508014506 9 171 0.0 0.0 0.00 0.64 0.64 93 1011.9
20260508014013 9 171 0.0 0.0 0.00 0.64 0.64 93 1011.9
20260508013506 9 171 0.0 0.0 0.00 0.64 0.64 93 1011.9
20260508013021 10 171 0.0 0.0 0.00 0.64 0.64 93 1012.1
20260508012506 10 171 0.0 0.0 0.00 0.64 0.64 93 1012.0
20260508012012 10 171 0.0 0.0 0.00 0.64 0.64 93 1012.0
20260508011505 10 171 0.0 0.0 0.00 0.64 0.64 93 1012.0
20260508011002 10 171 0.0 0.0 0.00 0.64 0.64 93 1011.9
20260508010508 10 171 0.0 0.0 0.00 0.64 0.64 93 1011.9
20260508010009 10 171 0.0 0.0 0.00 0.64 0.64 93 1012.0
20260508005502 10 171 0.0 0.0 0.00 0.64 0.64 93 1012.0
20260508005006 10 171 0.0 0.0 0.00 0.64 0.64 93 1012.0
20260508004504 10 171 0.0 0.0 0.00 0.64 0.64 93 1011.9
20260508004006 10 171 0.0 0.0 0.00 0.64 0.64 93 1011.9
20260508003509 11 171 0.0 0.0 0.00 0.64 0.64 93 1011.9
20260508003005 11 171 0.0 0.0 0.00 0.64 0.64 93 1011.7
20260508002507 11 171 0.0 0.0 0.00 0.64 0.64 93 1011.8
20260508002010 11 171 0.0 0.0 0.00 0.64 0.64 92 1011.8
20260508001505 11 171 0.0 0.0 0.00 0.64 0.64 92 1011.8
20260508001004 11 171 0.0 0.0 0.00 0.64 0.64 92 1011.6
20260508000515 11 171 0.0 0.0 0.00 0.64 0.64 92 1011.6
20260508000006 11 171 0.0 0.0 0.00 0.64 0.64 92 1011.4
20260507235507 11 171 0.0 0.0 0.00 0.64 0.64 92 1011.3
20260507235010 11 171 0.0 0.0 0.00 0.64 0.64 91 1011.3
20260507234513 11 171 0.0 0.0 0.00 0.64 0.64 91 1011.2
20260507234006 11 171 0.0 0.0 0.00 0.64 0.64 91 1011.2
20260507233510 11 171 0.0 0.0 0.00 0.64 0.64 91 1011.0
20260507233010 11 171 0.0 0.0 0.00 0.64 0.64 91 1011.0
20260507232507 11 171 0.0 1.6 0.00 0.64 0.64 91 1011.1
20260507232010 11 171 0.0 1.6 0.00 0.64 0.64 91 1011.1
20260507231508 11 170 0.0 1.6 0.00 0.64 0.64 91 1010.9
20260507231008 11 159 0.0 1.6 0.00 0.64 0.64 91 1010.9
20260507230508 11 183 0.0 1.6 0.00 0.64 0.64 91 1011.0
20260507230008 11 183 0.0 1.6 0.00 0.64 0.64 91 1010.7
20260507225508 11 183 0.0 0.0 0.00 0.64 0.64 91 1010.9
20260507225008 11 183 0.0 0.0 0.00 0.64 0.64 90 1010.9
20260507224514 11 183 0.0 0.0 0.00 0.64 0.64 91 1010.8
20260507224007 11 183 0.0 0.0 0.00 0.64 0.64 90 1010.9
20260507223511 11 183 0.0 1.6 0.00 0.64 0.64 90 1010.9
20260507223013 11 183 0.0 1.6 0.00 0.64 0.64 90 1011.1
20260507222516 11 114 0.0 3.2 0.00 0.64 0.64 89 1011.0
20260507222014 11 117 0.0 3.2 0.00 0.64 0.64 90 1010.9
20260507221510 11 112 0.0 3.2 0.00 0.64 0.64 90 1010.9
20260507221010 11 187 0.0 1.6 0.00 0.64 0.64 91 1010.9
20260507220515 11 189 0.0 6.4 0.00 0.64 0.64 91 1010.9
20260507220013 11 126 0.0 6.4 0.00 0.64 0.64 90 1010.6
20260507215506 11 116 1.6 6.4 0.00 0.64 0.64 90 1010.5
20260507215008 11 160 0.0 4.8 0.00 0.64 0.64 91 1010.6
20260507214519 11 104 1.6 4.8 0.00 0.64 0.64 91 1010.7
20260507214012 12 155 1.6 4.8 0.00 0.64 0.64 92 1010.9
20260507213508 12 179 0.0 4.8 0.03 0.64 0.64 92 1010.7
20260507213017 12 134 0.0 6.4 0.05 0.64 0.64 92 1010.7
20260507212511 12 169 0.0 6.4 0.08 0.64 0.64 92 1010.6
20260507212008 12 261 0.0 4.8 0.10 0.64 0.64 92 1010.7
20260507211512 12 241 0.0 6.4 0.13 0.64 0.64 92 1010.3
20260507211009 11 113 1.6 6.4 0.15 0.64 0.64 92 1010.3
20260507210508 11 125 0.0 6.4 0.15 0.64 0.64 92 1010.6
20260507210016 11 160 0.0 6.4 0.18 0.64 0.64 92 1010.7
20260507205507 11 126 0.0 3.2 0.18 0.64 0.64 92 1010.6
20260507205009 11 107 0.0 0.0 0.18 0.64 0.64 92 1010.7
20260507204515 11 107 0.0 1.6 0.23 0.64 0.64 92 1011.1
20260507204009 11 107 0.0 1.6 0.28 0.64 0.64 91 1011.1
20260507203510 11 107 0.0 1.6 0.25 0.61 0.61 91 1011.1
20260507203016 11 117 0.0 1.6 0.23 0.58 0.58 91 1011.2
20260507202507 11 101 0.0 1.6 0.20 0.56 0.56 90 1011.0
20260507202015 11 102 0.0 1.6 0.18 0.53 0.53 90 1011.0
20260507201518 11 112 0.0 0.0 0.15 0.51 0.51 90 1011.2
20260507201007 11 112 0.0 0.0 0.13 0.48 0.48 90 1011.1
20260507200512 12 112 0.0 0.0 0.13 0.48 0.48 89 1011.0
20260507200020 12 111 0.0 0.0 0.10 0.46 0.46 89 1011.0
20260507195512 12 88 0.0 0.0 0.10 0.46 0.46 88 1010.9
20260507195014 12 87 0.0 0.0 0.10 0.46 0.46 87 1011.3
20260507194520 12 157 0.0 0.0 0.05 0.41 0.41 86 1011.3
20260507194009 12 157 0.0 4.8 0.00 0.36 0.36 86 1011.1
20260507193509 12 149 0.0 4.8 0.00 0.36 0.36 85 1011.0
20260507193023 12 149 1.6 4.8 0.00 0.36 0.36 84 1011.3
20260507192509 12 86 0.0 1.6 0.00 0.36 0.36 84 1011.4
20260507192007 12 55 0.0 1.6 0.00 0.36 0.36 83 1011.4
20260507191520 12 146 0.0 1.6 0.00 0.36 0.36 82 1011.3
20260507191010 12 146 0.0 4.8 0.00 0.36 0.36 80 1011.4
20260507190509 12 122 0.0 6.4 0.00 0.36 0.36 79 1011.5
20260507190024 12 149 0.0 6.4 0.00 0.36 0.36 79 1011.4
20260507185509 12 105 0.0 6.4 0.00 0.36 0.36 79 1011.4
20260507185008 12 194 0.0 6.4 0.00 0.36 0.36 76 1011.5
20260507184522 12 130 0.0 6.4 0.00 0.36 0.36 76 1011.4
20260507184010 13 5 1.6 6.4 0.00 0.36 0.36 76 1011.4
20260507183507 13 148 1.6 6.4 0.00 0.36 0.36 76 1011.3
20260507183022 13 199 0.0 8.0 0.00 0.36 0.36 76 1011.3
20260507182509 13 136 1.6 8.0 0.00 0.36 0.36 76 1011.3
20260507182007 13 153 0.0 8.0 0.00 0.36 0.36 76 1011.5
20260507181524 13 198 1.6 8.0 0.00 0.36 0.36 77 1011.6
20260507181017 13 134 3.2 11.3 0.00 0.36 0.36 78 1011.5
20260507180506 13 128 0.0 11.3 0.00 0.36 0.36 77 1011.5
20260507180003 13 205 3.2 11.3 0.00 0.36 0.36 79 1011.5
20260507175511 13 163 3.2 11.3 0.00 0.36 0.36 78 1011.4
20260507175006 13 136 0.0 8.0 0.00 0.36 0.36 79 1011.5
20260507174513 13 11 0.0 8.0 0.00 0.36 0.36 79 1011.6
20260507174002 13 225 0.0 4.8 0.00 0.36 0.36 77 1011.6
20260507173511 13 225 0.0 8.0 0.00 0.36 0.36 77 1011.7
20260507173006 13 301 0.0 8.0 0.00 0.36 0.36 78 1011.8
20260507172503 13 294 0.0 8.0 0.00 0.36 0.36 81 1012.0
20260507172010 13 129 0.0 8.0 0.00 0.36 0.36 81 1011.8
20260507171505 13 184 0.0 9.7 0.00 0.36 0.36 82 1011.7
20260507171007 13 105 3.2 9.7 0.00 0.36 0.36 82 1011.8
20260507170509 13 188 1.6 9.7 0.00 0.36 0.36 84 1012.0
20260507170006 12 144 0.0 6.4 0.00 0.36 0.36 84 1012.0
20260507165510 12 295 0.0 6.4 0.00 0.36 0.36 84 1012.1
20260507165007 12 155 0.0 6.4 0.00 0.36 0.36 86 1012.2
20260507164507 12 194 1.6 6.4 0.00 0.36 0.36 86 1012.3
20260507164006 12 21 0.0 6.4 0.00 0.36 0.36 85 1012.3
20260507163508 12 9 0.0 6.4 0.00 0.36 0.36 86 1012.3
20260507163007 12 266 1.6 9.7 0.00 0.36 0.36 86 1012.1
20260507162506 12 312 0.0 9.7 0.00 0.36 0.36 86 1012.4
20260507162008 12 160 0.0 4.8 0.00 0.36 0.36 86 1012.4
20260507161509 12 275 0.0 4.8 0.00 0.36 0.36 86 1012.1
20260507161010 12 232 0.0 3.2 0.00 0.36 0.36 86 1012.3
20260507160512 12 169 0.0 6.4 0.00 0.36 0.36 86 1012.3
20260507160031 12 324 0.0 6.4 0.00 0.36 0.36 86 1012.4
20260507155506 12 5 0.0 8.0 0.00 0.36 0.36 86 1012.4
20260507155010 12 27 0.0 8.0 0.00 0.36 0.36 86 1012.4
20260507154510 12 5 0.0 9.7 0.00 0.36 0.36 85 1012.4
20260507154009 12 302 0.0 9.7 0.00 0.36 0.36 84 1012.3
20260507153511 12 22 0.0 4.8 0.00 0.36 0.36 84 1012.3
20260507153010 12 32 0.0 4.8 0.00 0.36 0.36 83 1012.4
20260507152508 13 335 1.6 4.8 0.00 0.36 0.36 82 1012.4
20260507152008 13 308 0.0 9.7 0.00 0.36 0.36 83 1012.3
20260507151511 13 32 0.0 9.7 0.00 0.36 0.36 82 1012.1
20260507151007 13 127 0.0 6.4 0.00 0.36 0.36 83 1012.2
20260507150512 13 64 0.0 6.4 0.00 0.36 0.36 83 1012.2
20260507150011 13 291 0.0 6.4 0.00 0.36 0.36 82 1012.4
20260507145507 13 281 0.0 8.0 0.00 0.36 0.36 84 1012.3
20260507145016 13 172 0.0 9.7 0.00 0.36 0.36 83 1012.3
20260507144512 13 5 3.2 9.7 0.00 0.38 0.36 82 1012.4
20260507144010 13 332 0.0 4.8 0.00 0.38 0.36 84 1012.2
20260507143508 13 54 0.0 4.8 0.00 0.38 0.36 84 1011.9
20260507143011 13 5 0.0 4.8 0.00 0.43 0.36 84 1012.1
20260507142509 13 302 0.0 6.4 0.00 0.46 0.36 85 1012.2
20260507142009 13 307 0.0 6.4 0.00 0.48 0.36 84 1012.2
20260507141514 13 30 0.0 6.4 0.00 0.48 0.36 85 1012.3
20260507141013 13 350 0.0 6.4 0.00 0.53 0.36 85 1012.3
20260507140502 13 34 0.0 6.4 0.00 0.56 0.36 86 1012.4
20260507140031 13 292 0.0 6.4 0.00 0.58 0.36 86 1012.5
20260507135508 13 167 0.0 6.4 0.00 0.58 0.36 87 1012.4
20260507135009 13 49 0.0 4.8 0.00 0.58 0.36 88 1012.4
20260507134516 13 28 0.0 3.2 0.00 0.61 0.36 87 1012.4
20260507134009 13 5 0.0 6.4 0.00 0.61 0.36 87 1012.7
20260507133506 13 40 0.0 6.4 0.00 0.61 0.36 87 1012.5
20260507133016 13 38 3.2 8.0 0.00 0.61 0.36 87 1012.2
20260507132508 13 297 0.0 8.0 0.00 0.61 0.36 89 1012.1
20260507132005 13 25 1.6 8.0 0.00 0.61 0.36 89 1012.2
20260507131534 13 256 0.0 4.8 0.00 0.61 0.36 89 1011.8
20260507131010 13 318 0.0 3.2 0.00 0.61 0.36 89 1012.1
20260507130508 13 320 0.0 12.9 0.00 0.61 0.36 90 1012.3
20260507130020 13 297 0.0 12.9 0.00 0.61 0.36 90 1012.2
20260507125509 13 89 0.0 9.7 0.00 0.61 0.36 90 1012.1
20260507125005 13 21 1.6 9.7 0.00 0.61 0.36 91 1012.0
20260507124522 13 275 0.0 4.8 0.00 0.61 0.36 92 1012.1
20260507124010 12 30 0.0 4.8 0.00 0.61 0.36 92 1012.1
20260507123507 12 28 0.0 4.8 0.00 0.61 0.36 91 1011.9
20260507123028 12 348 0.0 3.2 0.00 0.61 0.36 92 1012.0
20260507122517 12 328 0.0 6.4 0.00 0.61 0.36 92 1012.1
20260507122006 12 311 0.0 6.4 0.00 0.61 0.36 92 1012.0
20260507121522 12 326 0.0 4.8 0.00 0.61 0.36 92 1012.0
20260507121011 12 34 0.0 4.8 0.00 0.61 0.36 92 1011.8
20260507120504 12 333 0.0 3.2 0.00 0.61 0.36 92 1011.8
20260507120029 12 336 0.0 3.2 0.00 0.61 0.36 92 1011.8
20260507115503 12 303 0.0 0.0 0.00 0.61 0.36 93 1012.0
20260507115006 12 303 0.0 0.0 0.00 0.61 0.36 92 1012.0
20260507114504 12 317 0.0 0.0 0.00 0.61 0.36 92 1012.0
20260507114003 12 309 0.0 0.0 0.00 0.61 0.36 93 1012.2
20260507113508 12 309 0.0 0.0 0.00 0.61 0.36 93 1012.1
20260507113004 12 309 0.0 0.0 0.03 0.61 0.36 93 1012.0
20260507112504 12 309 0.0 0.0 0.03 0.61 0.36 92 1011.9
20260507112011 12 309 0.0 0.0 0.03 0.61 0.36 92 1011.8
20260507111506 12 167 0.0 0.0 0.03 0.61 0.36 92 1011.5
20260507111007 12 42 0.0 0.0 0.03 0.61 0.36 92 1011.5
20260507110506 12 42 0.0 0.0 0.03 0.61 0.36 92 1011.6
20260507110004 12 279 0.0 0.0 0.03 0.61 0.36 92 1011.8
20260507105504 12 281 0.0 0.0 0.03 0.61 0.36 92 1011.7